Location: Pardubice
(50.0618°N, 15.7556°E)
Time: 22:20:29
(UTC+02:00)

ISS - Pass Details

Date: 30 May 2018
Orbit: 402 x 406 km, 51.6° (Epoch: 20 June)

Event Time Altitude Azimuth Distance (km) Brightness Sun altitude
Rises 22:26:08 0° 284° (WNW) 2,324 0.8 -10.9°
Reaches altitude 10° 22:28:13 10° 285° (WNW) 1,462 -0.2 -11.1°
Maximum altitude 22:31:29 82° 12° (NNE) 413 -3.8 -11.4°
Enters shadow 22:34:32 12° 102° (ESE) 1,366 -1.6 -11.7°
